Regional Weather Roundup
Issued by NWS

Home | Current Version | Previous Version | Text Only | Print | Product List | Glossary Off
Versions: 1 2 3 4 5 6 7 8 9 10 11 12 13 14 15 16 17 18 19 20 21 22 23 24 25 26 27 28 29 30 31 32 33 34 35 36 37 38 39 40 41 42 43 44 45 46 47 48 49 50

612
ASUS43 KDTX 210610
RWRMI
MICHIGAN HOURLY REGIONAL WEATHER ROUNDUP
NATIONAL WEATHER SERVICE DETROIT/PONTIAC MI
100 AM EST TUE FEB 21 2017

NOTE: "FAIR" INDICATES FEW OR NO CLOUDS BELOW 12,000 FEET WITH NO
SIGNIFICANT WEATHER AND/OR OBSTRUCTION TO VISIBILITY.

MIZ047>049-052>055-059>063-066>070-074>076-081>083-210700-
SOUTHEAST LOWER MICHIGAN

CITY           SKY/WX    TMP DP  RH WIND       PRES   REMARKS
ADRIAN         CLOUDY    37  32  82 SE7       30.07F WCI  32
6HR MIN TEMP:  36; 6HR MAX TEMP:  40;

ALMA           CLOUDY    40  32  73 CALM      30.03R
ANN ARBOR      CLOUDY    37  29  72 E3        30.08F
BAD AXE        CLOUDY    38  30  74 SE13G22   30.07F WCI  30
6HR MIN TEMP:  37; 6HR MAX TEMP:  39;

CARO           CLOUDY    39  28  64 SE13      30.04F WCI  32
DETROIT CITY   CLOUDY    37  30  75 SE10      30.09F WCI  30
6HR MIN TEMP:  37; 6HR MAX TEMP:  40;

DETROIT        CLOUDY    39  30  70 E5        30.09F
6HR MIN TEMP:  38; 6HR MAX TEMP:  44;

FLINT          CLOUDY    40  30  67 S9        30.05F WCI  34
6HR MIN TEMP:  39; 6HR MAX TEMP:  44;

GROSSE ILE     CLOUDY    39  31  73 E3        30.08F
6HR MIN TEMP:  37; 6HR MAX TEMP:  40;

HILLSDALE      CLOUDY    37  32  81 SE7       30.03F WCI  32
HOWELL         PTCLDY    39  30  69 SE10      30.03F WCI  32
6HR MIN TEMP:  39; 6HR MAX TEMP:  46;


CITY           SKY/WX    TMP DP  RH WIND       PRES   REMARKS
JACKSON        CLOUDY    39  30  70 SE12      30.03F WCI  32
6HR MIN TEMP:  39; 6HR MAX TEMP:  47;

LAMBERTVILLE   CLOUDY    37  33  83 E6        30.06F WCI  33
6HR MIN TEMP:  37; 6HR MAX TEMP:  38;

LANSING        MOCLDY    43  31  62 SE14      30.02F
6HR MIN TEMP:  43; 6HR MAX TEMP:  51;

LAPEER         FAIR      39  29  68 SE13G22   30.06F WCI  31
6HR MIN TEMP:  38; 6HR MAX TEMP:  43;

MASON          CLOUDY    40  33  73 SE9       30.02F WCI  35
MONROE         CLOUDY    37  33  87 E7        30.08F WCI  31
6HR MIN TEMP:  36; 6HR MAX TEMP:  40;

MT. CLEMENS    MOCLDY    37  31  80 SE8       30.08F WCI  30
6HR MIN TEMP:  35; 6HR MAX TEMP:  39;

PONTIAC        CLOUDY    38  29  70 SE12      30.06F WCI  30
6HR MIN TEMP:  37; 6HR MAX TEMP:  42;

PORT HOPE        N/A     36  28  73 SE13      30.07S WCI  27
6HR MIN TEMP:  35; 6HR MAX TEMP:  40;

PORT HURON     CLOUDY    37  27  65 S5        30.13S WCI  34
TRI CITIES     CLOUDY    41  30  65 SE10      30.03F
6HR MIN TEMP:  41; 6HR MAX TEMP:  47;

MIDLAND        MOCLDY    42  29  60 SE6       30.02F
6HR MIN TEMP:  40; 6HR MAX TEMP:  43;

TROY           CLOUDY    39  27  63 E8        30.11F WCI  33
SAGINAW HB     CLOUDY    39  28  65 SE8       30.03F WCI  34
$$
MIZ043>046-050>051-056>058-064>065-071>073-077>080-210700-
SOUTHWEST LOWER MICHIGAN

CITY           SKY/WX    TMP DP  RH WIND       PRES   REMARKS
BATTLE CREEK   MOCLDY    46  36  68 SE10      30.00F
6HR MIN TEMP:  45; 6HR MAX TEMP:  53;

BENTON HARBOR  MOCLDY    52  40  63 SE10G21   29.95F
6HR MIN TEMP:  52; 6HR MAX TEMP:  59;

BIG RAPIDS     CLOUDY    45  33  63 S10       29.96F
6HR MIN TEMP:  44; 6HR MAX TEMP:  47;

COLDWATER      CLOUDY    43  34  70 SE8       30.02R
6HR MIN TEMP:  42; 6HR MAX TEMP:  50;

FREMONT        FAIR      49  33  54 SE9       29.94F
HOLLAND        CLOUDY    52  38  58 SE15      29.96F
6HR MIN TEMP:  51; 6HR MAX TEMP:  57;

GRAND RAPIDS   CLOUDY    47  34  60 SE10      29.98F
6HR MIN TEMP:  47; 6HR MAX TEMP:  53;

IONIA          CLOUDY    42  32  70 S8        30.01R
6HR MIN TEMP:  42; 6HR MAX TEMP:  49;

KALAMAZOO      CLOUDY    47  35  63 S8        29.99F
6HR MIN TEMP:  47; 6HR MAX TEMP:  54;

LUDINGTON      CLOUDY    53  38  58 S12G20    29.88F
6HR MIN TEMP:  52; 6HR MAX TEMP:  54;

MARSHALL       CLOUDY    43  33  68 SE7       30.01S
6HR MIN TEMP:  42; 6HR MAX TEMP:  49;

MOUNT PLEASANT CLOUDY    39  32  74 SE5       30.01F
6HR MIN TEMP:  39; 6HR MAX TEMP:  44;

MUSKEGON       CLOUDY    52  37  56 SE14      29.94F
6HR MIN TEMP:  52; 6HR MAX TEMP:  57;

SOUTH HAVEN    CLOUDY    51  39  63 SE9G17    29.95F
$$
MIZ016>042-210700-
NORTHERN LOWER MICHIGAN

CITY           SKY/WX    TMP DP  RH WIND       PRES   REMARKS
ALPENA         CLOUDY    39  34  82 SE14      30.02F WCI  31
6HR MIN TEMP:  34; 6HR MAX TEMP:  39;

BEAVER ISLAND  LGT RAIN  39  36  89 SE10G16   29.87F WCI  32
6HR MIN TEMP:  37; 6HR MAX TEMP:  41;

BELLAIRE       CLOUDY    46  33  61 S8G18     29.90F
6HR MIN TEMP:  44; 6HR MAX TEMP:  47;

CADILLAC       CLOUDY    43  33  66 SE10      29.94F
CHARLEVOIX     CLOUDY    47  33  57 SE13G20   29.90F
6HR MIN TEMP:  44; 6HR MAX TEMP:  47;

FRANKFORT      CLOUDY    51  37  57 S13G18    29.87S
GAYLORD        CLOUDY    42  29  59 S18G24    29.93F
6HR MIN TEMP:  39; 6HR MAX TEMP:  43;

GRAYLING       CLOUDY    41  32  70 E3        29.97F
6HR MIN TEMP:  38; 6HR MAX TEMP:  41;

HARBOR SPRINGS CLOUDY    41  32  71 NE8       29.91F
HOUGHTON LAKE  CLOUDY    40  30  67 S12       29.99F WCI  33
6HR MIN TEMP:  38; 6HR MAX TEMP:  40;

MANISTEE       CLOUDY    53  36  52 S10G20    29.87F
OSCODA         CLOUDY    38  32  77 S13       30.04F WCI  30
6HR MIN TEMP:  37; 6HR MAX TEMP:  39;

PELLSTON       CLOUDY    39  31  72 SE8       29.92F WCI  33
6HR MIN TEMP:  37; 6HR MAX TEMP:  39; 6HR PCP: TRACE;

ROGERS CITY    CLOUDY    38  33  80 SE17G25   29.97F WCI  29
TRAVERSE CITY  CLOUDY    49  33  54 VRB7      29.88F
6HR MIN TEMP:  47; 6HR MAX TEMP:  49;

$$
MIZ007>008-015-210700-
EASTERN UPPER MICHIGAN

CITY           SKY/WX    TMP DP  RH WIND       PRES   REMARKS
KINROSS        LGT RAIN  36  32  85 SE21      29.95F WCI  25
6HR MIN TEMP:  32; 6HR MAX TEMP:  36; 6HR PCP:  0.01;

MACKINAC ISLAN CLOUDY    35  32  90 E9G18     29.93F WCI  27
6HR MIN TEMP:  33; 6HR MAX TEMP:  35;

NEWBERRY       LGT RAIN  34  33  96 SE13      29.86F WCI  25
6HR MIN TEMP:  34; 6HR MAX TEMP:  35; 6HR PCP:  0.02;

S. S. MARIE    LGT RAIN  34  27  75 E12       29.96F WCI  25
6HR MIN TEMP:  33; 6HR MAX TEMP:  34; 6HR PCP: TRACE;

MUNISING         N/A     40  38  93 S10       29.78F WCI  33
6HR MIN TEMP:  39; 6HR MAX TEMP:  41; 6HR PCP:  0.11;

$$
MIZ004>006-011>014-085-210700-
CENTRAL UPPER MICHIGAN

CITY           SKY/WX    TMP DP  RH WIND       PRES   REMARKS
MANISTIQUE     FLURRIES  36  35  98 SE15G21   29.83F WCI  26
6HR MIN TEMP:  34; 6HR MAX TEMP:  36; 6HR PCP:  0.20;

ESCANABA       LGT RAIN  41  39  93 S12       29.79F
6HR MIN TEMP:  38; 6HR MAX TEMP:  41; 6HR PCP:  0.14;

MENOMINEE      LGT RAIN  47  42  83 S18       29.79F
6HR MIN TEMP:  44; 6HR MAX TEMP:  47; 6HR PCP:  0.21;

SAWYER-GWINN   CLOUDY    38  38  97 S15       29.73F WCI  30
6HR MIN TEMP:  38; 6HR MAX TEMP:  42; 6HR PCP:  0.05;

$$
MIZ001>003-009>011-084-210700-
WESTERN UPPER MICHIGAN

CITY           SKY/WX    TMP DP  RH WIND       PRES   REMARKS
IRON MOUNTAIN  CLOUDY    43  40  89 S10       29.73F FOG
6HR MIN TEMP:  39; 6HR MAX TEMP:  43; 6HR PCP:  0.17;

HOUGHTON       CLOUDY    44  41  89 S15       29.60F
6HR MIN TEMP:  37; 6HR MAX TEMP:  44; 6HR PCP:  0.17;

COPPER HARBOR    N/A     41  39  93 SW14G23   29.60F
6HR MIN TEMP:  38; 6HR MAX TEMP:  41;

IRONWOOD       LGT RAIN  49  48  97 S12G20    29.60F
6HR MIN TEMP:  47; 6HR MAX TEMP:  50; 6HR PCP:  0.10;

$$

ABBREVIATIONS USED IN REMARKS
   TC - TEMPERATURE IN CELSIUS
  WCI - WIND CHILL INDEX
   HX - HEAT INDEX
  VSB - VISIBILITY





USA.gov is the U.S. government's official web portal to all federal, state and local government web resources and services.